Regional Weather Roundup
Issued by NWS

Home | Current Version | Previous Version | Text Only | Print | Product List | Glossary Off
Versions: 1 2 3 4 5 6 7 8 9 10 11 12 13 14 15 16 17 18 19 20 21 22 23 24 25 26 27 28 29 30 31 32 33 34 35 36 37 38 39 40 41 42 43 44 45 46 47 48 49

000
ASUS45 KCYS 271210
RWRWY

WYOMING REGIONAL WEATHER ROUNDUP
NATIONAL WEATHER SERVICE CHEYENNE WY
500 AM MST SAT DEC 27 2014

NOTE:  "FAIR" INDICATES FEW OR NO CLOUDS BELOW 12,000 FEET
WITH NO SIGNIFICANT WEATHER AND/OR OBSTRUCTIONS TO VISIBILITY.

WYZ001-271300-
YELLOWSTONE NATIONAL PARK

CITY           SKY/WX    TMP DP  RH WIND       PRES   REMARKS
LK YELLOWSTONE   N/A     -8 -12  83 CALM      30.07S
6HR MIN TEMP: -12; 6HR MAX TEMP:  -1;

W YELLOWSTONE  NOT AVBL

$$
WYZ002>013-054>058-071-098>099-271300-
NORTHERN WYOMING

CITY           SKY/WX    TMP DP  RH WIND       PRES   REMARKS
JACKSON        FAIR      -8 -11  84 N12       30.15S WCI -27
CODY           FAIR      21   3  45 SW10G23   30.01S WCI  10
GREYBULL       FOG        2   1  96 SE3       30.14F VSB 1/4
6HR MIN TEMP:   2; 6HR MAX TEMP:   6;

WORLAND        FAIR      -1  -4  87 CALM      30.12F FOG
6HR MIN TEMP:  -7; 6HR MAX TEMP:   8;

SHERIDAN       FAIR       4  -2  76 S7        30.05F WCI  -8
6HR MIN TEMP:  -1; 6HR MAX TEMP:  15;

BUFFALO        FAIR       5  -2  72 SW5       30.03F WCI  -4
6HR MIN TEMP:   5; 6HR MAX TEMP:  16;

GILLETTE       FAIR       9   5  84 S10       30.06F WCI  -5
6HR MIN TEMP:   8; 6HR MAX TEMP:  17;

HULETT           N/A    N/A N/A N/A MISG        N/A
NEWCASTLE      CLOUDY    14  12  92 NW5       30.11R WCI   6

$$
WYZ014>020-022>026-101>103-271300-
CENTRAL WYOMING

CITY           SKY/WX    TMP DP  RH WIND       PRES   REMARKS
BIG PINEY      FAIR      -4 -12  68 CALM      30.11S
6HR MIN TEMP:  -7; 6HR MAX TEMP:   9;

PINEDALE       FAIR      -9 -15  77 NW5       30.11R WCI -21
DUBOIS         NOT AVBL
LANDER         FAIR       8   4  83 CALM      30.06F
6HR MIN TEMP:   6; 6HR MAX TEMP:  15;

RIVERTON       FAIR       5   2  87 N5        30.08F WCI  -4
6HR MIN TEMP:   3; 6HR MAX TEMP:  13;

CASPER         CLOUDY    13   7  77 SW16      30.08S WCI  -3
6HR MIN TEMP:   4; 6HR MAX TEMP:  14;

DOUGLAS        MOCLDY     3  -1  83 NW6       30.10S WCI  -8
6HR MIN TEMP:   2; 6HR MAX TEMP:   7;


$$
WYZ021-027>030-104>119-271300-
SOUTHERN WYOMING

CITY           SKY/WX    TMP DP  RH WIND       PRES   REMARKS
EVANSTON       FAIR       7   2  80 SW8       30.16R WCI  -6
6HR MIN TEMP:   5; 6HR MAX TEMP:   8;

KEMMERER       FLURRIES   1   0  92 CALM      30.13S
FORT BRIDGER   FAIR       9   5  82 W12       30.17S WCI  -5
ROCK SPRINGS   CLOUDY     6   2  83 W12       30.13R WCI  -9
6HR MIN TEMP:   2; 6HR MAX TEMP:  11; 6HR PCP: TRACE;

DIXON          FLURRIES   0  -4  85 CALM      30.18R
RAWLINS        MOCLDY    -4  -8  83 CALM      30.08S FOG
6HR MIN TEMP:  -7; 6HR MAX TEMP:   2;

SARATOGA       FAIR      -4  -8  84 S10       30.09R WCI -21
LARAMIE        FAIR     -12 -15  86 S9        30.02S WCI -30
6HR MIN TEMP: -13; 6HR MAX TEMP:   1; 6HR PCP: TRACE;

CHEYENNE       FAIR       9   0  67 NW14      30.04S WCI  -7
6HR MIN TEMP:   5; 6HR MAX TEMP:  11;

TORRINGTON     FAIR       6   2  83 NW9       30.12S WCI  -8
6HR MIN TEMP:   1; 6HR MAX TEMP:  15;

PINE BLUFFS    FAIR       0  -6  78 MISG      30.09S

$$


USA.gov is the U.S. government's official web portal to all federal, state and local government web resources and services.